Location: Green River State Wildlife Area
(41.6390°N, 89.5080°W)
Time: 04:29:37
(UTC-05:00)

Daily predictions for brighter satellites

Satellite Brightness Start Highest point End
(mag) Time Altitude Azimuth Time Altitude Azimuth Time Altitude Azimuth
Cosmos 2237 Rocket 4.3 00:22:05 16° W 00:24:34 21° NW 00:28:52 10° N
CZ-2C R/B 3.6 00:22:12 10° NNE 00:25:58 45° NNE 00:25:58 45° NNE
Cosmos 2278 Rocket 4.4 00:25:22 10° WNW 00:27:20 14° W 00:27:20 14° W
CZ-4C R/B 4.4 00:37:50 10° WNW 00:42:12 23° W 00:42:12 23° W
Nadezhda 1 Rocket 4.4 00:50:49 60° N 00:50:49 60° N 00:55:53 10° N
Cosmos 1943 4.4 00:58:32 36° NE 00:58:32 36° NE 01:01:57 10° NNE
ATLAS 2AS CENTAUR R/B 3.4 00:55:31 52° W 00:56:56 59° NW 01:04:57 10° NNE
NOSS 3-2 (A) 4.4 01:01:53 10° NNW 01:09:13 56° NE 01:11:09 46° E
ATLAS CENTAUR R/B 4.3 01:18:47 12° NW 01:18:47 12° NW 01:20:08 10° NNW
Cosmos 2369 Rocket 3.2 01:18:50 10° NNW 01:22:21 40° NNW 01:22:21 40° NNW
ATLAS 3B R/B 3.6 01:18:09 10° NW 01:22:23 36° WNW 01:22:23 36° WNW
Cosmos 1943 Rocket 2.9 01:26:11 10° NNW 01:30:31 49° N 01:30:31 49° N
Cosmos 2341 Rocket 4.4 01:29:12 10° NNW 01:34:11 57° NW 01:34:11 57° NW
Lacrosse 5 rocket 4.2 01:52:20 13° ENE 01:52:20 13° ENE 01:53:01 10° ENE
USA 215 3.3 01:54:39 10° NE 02:00:37 67° E 02:00:37 67° E
COSMOS 2406 4.3 02:02:16 37° E 02:02:16 37° E 02:06:43 10° NE
Cosmos 1656 Rocket 4.2 02:02:33 10° NNW 02:07:22 54° NE 02:07:22 54° NE
Cosmos 1680 Rocket 4.1 02:16:50 55° NE 02:16:50 55° NE 02:20:59 10° NNE
Meteor 2-21 4.5 02:10:12 10° N 02:15:40 71° NNW 02:15:40 71° NNW
RESURS DK-1 4.3 02:21:41 28° NE 02:21:41 28° NE 02:23:47 10° NNE
CENTAUR R/B 3.9 02:13:45 10° NNW 02:21:17 49° NE 02:29:21 10° ESE
NOSS 3-2 (C) 3.9 02:13:48 10° NW 02:21:23 78° WSW 02:22:05 72° SSW
Cosmos 2366 rocket 4.3 02:25:32 10° NNW 02:31:00 55° WNW 02:31:00 55° WNW
Cosmos 2218 Rocket 4.5 02:26:13 10° NNW 02:31:15 46° WNW 02:31:15 46° WNW
USA 267 4.2 02:27:24 10° E 02:33:34 45° NNE 02:39:43 10° NW
Resurs 1-4 Rocket 3.7 02:30:01 10° NE 02:34:22 26° E 02:35:17 24° ESE
COSMOS 2455 2.8 02:32:04 10° NNW 02:37:28 71° NW 02:37:28 71° NW
SL-16 R/B 3.4 02:39:58 23° SE 02:43:25 46° ENE 02:49:14 10° N
ARIANE 5 R/B 3.9 02:39:14 10° NE 02:43:47 29° E 02:44:46 27° ESE
SL-08 R/B 3.6 02:47:22 64° N 02:47:22 64° N 02:51:30 10° N
NOSS 3-4 (A) 3.9 02:46:41 47° WNW 02:47:32 51° NW 02:53:54 10° NNE
NOSS 3-4 (C) 3.9 02:46:47 48° WNW 02:47:38 51° NW 02:54:00 10° NNE
NPP 3.6 02:42:29 10° NNE 02:47:51 80° E 02:47:51 80° E
Cosmos 1371 Rocket 4.1 02:43:01 10° NNW 02:48:25 73° ENE 02:48:37 72° E
Cosmos 1953 3.8 02:46:22 10° N 02:49:46 34° ENE 02:49:46 34° ENE
CZ-2D R/B 3.1 02:50:20 10° NNE 02:55:15 38° E 02:56:19 35° SE
IRS-P3 Rocket 4.5 02:51:58 10° NNE 02:57:23 85° WNW 02:57:24 85° W
Cosmos 921 Rocket 3.8 02:53:42 10° N 02:58:06 50° ENE 02:58:27 49° E
NOSS 2-2 (C) 4.0 03:05:48 56° ENE 03:05:48 56° ENE 03:09:39 10° NE
Cosmos 1758 Rocket 4.1 03:06:30 50° E 03:06:30 50° E 03:10:41 10° NNE
Meteor 1-21 4.0 03:06:18 73° WSW 03:06:34 75° W 03:12:11 10° N
Cosmos 1758 3.9 03:04:57 10° N 03:08:25 57° NNE 03:08:25 57° NNE
Cosmos 1271 Rocket 3.7 03:09:09 10° N 03:11:44 42° N 03:11:44 42° N
Cosmos 1943 Rocket 4.4 03:11:21 10° WNW 03:12:01 12° WNW 03:12:01 12° WNW
Cosmos 1818 3.5 03:14:38 68° S 03:15:13 76° ESE 03:20:41 10° NE
Cosmos 1805 4.2 03:14:53 10° NNW 03:17:32 41° NNW 03:17:32 41° NNW
Nadezhda 3 Rocket 4.2 03:19:59 48° WSW 03:20:49 51° WNW 03:27:00 10° N
Cosmos 1833 Rocket 4.4 03:21:59 17° SE 03:25:00 26° ESE 03:29:34 10° NE
BREEZE-M DEB (TANK) 3.8 03:24:22 35° WNW 03:26:04 55° N 03:39:57 10° ENE
IRS-1C 4.1 03:22:26 10° N 03:27:44 64° WNW 03:28:29 57° WSW
Lacrosse 5 rocket 1.8 03:28:02 57° WNW 03:28:23 59° NW 03:33:01 10° NE
Cosmos 1953 Rocket 3.4 03:28:15 83° SSW 03:28:24 87° WNW 03:32:54 10° N
Cosmos 2082 Rocket 3.6 03:27:15 20° SSE 03:30:14 32° ESE 03:35:14 10° NE
DNEPR-1 R/B 3.9 03:27:21 10° NNW 03:31:33 62° NE 03:35:59 10° SE
GEOS 3 Rocket 3.8 03:27:18 10° NE 03:32:35 63° ESE 03:34:03 45° S
UNK 3.5 03:34:25 69° SW 03:34:47 74° WSW 03:39:23 10° NNW
AQUA 4.3 03:30:23 10° N 03:34:54 43° WNW 03:35:04 43° WNW
Cosmos 1624 Rocket 4.2 03:35:18 10° NNW 03:40:11 47° W 03:40:11 47° W
ERS-1 4.4 03:36:01 10° N 03:40:57 68° WNW 03:41:58 53° SW
USA 215 4.1 03:37:54 10° NE 03:43:56 41° NNW 03:47:57 20° W
COSMOS 2406 4.2 03:44:19 28° W 03:45:47 32° NW 03:50:55 10° N
Cosmos 1727 Rocket 4.0 03:45:02 27° S 03:48:38 78° E 03:54:48 10° N
Cosmos 1825 Rocket 4.3 03:49:03 36° WNW 03:49:03 36° WNW 03:53:04 10° N
COBE Rocket 3.8 03:44:21 10° N 03:49:23 82° WNW 03:50:59 44° SSW
Cosmos 1378 4.1 03:49:57 29° SE 03:51:23 43° E 03:54:57 10° NNE
Cosmos 389 Rocket 2.4 03:47:45 10° N 03:51:24 89° E 03:51:42 74° SSE
Cosmos 2098 Rocket 2.6 03:49:35 10° N 03:51:55 54° N 03:51:55 54° N
Cosmos 2056 Rocket 4.0 03:49:21 10° NW 03:54:14 38° WSW 03:54:19 38° WSW
Spot 4 Rocket 4.3 03:49:32 10° N 03:54:32 51° WNW 03:55:56 40° WSW
Cosmos 1707 2.7 03:53:47 51° S 03:54:41 78° E 03:58:33 10° N
USA 32 4.4 03:57:38 39° WSW 03:58:51 46° W 04:03:54 10° N
Cosmos 1153 Rocket 4.5 03:52:49 10° N 03:58:59 81° E 04:05:08 10° S
ADEOS Rocket 3.3 03:56:03 10° N 04:02:05 60° WNW 04:05:31 29° SW
Cosmos 1470 2.9 04:05:36 10° NNW 04:09:23 49° W 04:09:57 44° WSW
CENTAUR R/B 3.3 04:04:35 10° NW 04:12:08 47° WSW 04:20:03 10° S
Cosmos 1459 Rocket 4.5 04:07:31 10° N 04:13:39 62° E 04:19:50 10° SSE
Resurs 1-4 Rocket 2.7 04:09:24 10° N 04:14:18 40° WNW 04:16:22 28° WSW
USA 267 3.2 04:09:57 10° SE 04:16:24 62° SW 04:22:54 10° NW
IRS-1D 4.3 04:13:12 10° N 04:17:58 37° WNW 04:20:05 26° WSW
Okean O Rocket 3.2 04:14:40 10° NNE 04:18:42 33° E 04:22:40 10° SSE
Orbus 7S? 2.9 04:15:19 10° NW 04:18:49 67° NE 04:21:24 10° SE
USA 161 1.3 04:18:45 53° SSW 04:19:16 71° WSW 04:22:06 10° NNW
ARIANE 5 R/B 3.4 04:18:10 10° N 04:22:54 35° WNW 04:25:07 24° WSW
ADEOS 4.4 04:19:48 10° N 04:24:27 33° WNW 04:26:42 23° WSW
Cosmos 1605 Rocket 4.4 04:19:20 10° NNW 04:25:07 42° W 04:29:03 19° SSW
Cosmos 1953 4.2 04:23:37 10° NW 04:25:29 16° WNW 04:25:29 16° WNW
UNKNOWN OBJECT B 3.3 04:22:49 10° N 04:26:40 45° WNW 04:28:21 28° SW
SL-16 R/B 3.4 04:25:02 23° SW 04:27:10 29° W 04:32:27 10° NW
Abrixas 4.5 04:25:37 10° NW 04:28:02 25° NNE 04:30:27 10° ENE
Cosmos 1452 Rocket 3.8 04:24:02 10° NNW 04:29:01 45° WSW 04:34:00 10° S
Cosmos-2242 3.8 04:26:24 10° NNW 04:30:22 34° W 04:32:00 25° SW
Cosmos 1733 4.2 04:27:46 10° NNW 04:30:58 26° W 04:31:19 26° W
Intercosmos 25 4.2 04:24:58 10° NNW 04:31:41 58° W 04:35:18 14° SSW
Meteor 1-24 Rocket 3.8 04:27:03 10° S 04:32:32 81° E 04:38:15 10° NNE
Delta 2 Rocket 4.3 04:33:16 20° S 04:33:16 20° S 04:35:29 10° SE
CZ-2D R/B 3.2 04:30:44 10° N 04:35:08 27° WNW 04:37:38 19° WSW
MOS 1 Rocket 3.2 04:32:03 10° N 04:36:22 64° WNW 04:39:49 17° SSW
Tiangong 1 2.9 04:37:48 15° S 04:37:48 15° S 04:38:35 10° SSE
Cosmos 1697 Rocket 2.7 04:31:27 10° NNW 04:37:06 86° ENE 04:42:42 10° SSE
Cosmos 1420 Rocket 4.1 04:37:38 10° NNW 04:42:48 53° WSW 04:47:55 10° S
Cosmos 1842 Rocket 3.6 04:38:33 10° NNW 04:42:53 58° W 04:47:15 10° S
MOZ.5/SAFIR/RUBIN 5/SL-8 4.4 04:40:25 15° SSW 04:43:47 35° W 04:48:05 10° NNW
PSLV R/B 4.5 04:40:29 10° NNE 04:44:43 49° E 04:48:54 10° S
Timation 2 Rocket 4.2 04:38:25 11° SSW 04:44:50 83° ESE 04:51:17 10° NNE
COSMOS 2487 3.9 04:44:17 19° W 04:45:32 23° WNW 04:48:27 10° N
Cosmos 1048 Rocket 4.0 04:44:28 16° SSW 04:48:33 63° WNW 04:53:39 10° NNE
Cosmos 2278 4.2 04:43:46 10° NW 04:48:57 37° WSW 04:54:07 10° S
Cosmos 2221 2.9 04:45:54 10° N 04:50:10 65° E 04:54:24 10° SSE
Cosmos 1000 Rocket 4.5 04:47:21 10° SSW 04:53:29 72° W 04:59:44 10° N
PSLV R/B 3.9 04:50:01 10° N 04:54:08 77° WNW 04:58:16 10° SSW
Cosmos 2369 4.4 04:52:37 10° NW 04:57:38 32° WSW 05:02:36 10° SSW
Cosmos 2100 Rocket 4.1 04:53:16 10° NNW 04:59:16 55° W 05:05:13 10° SSW
Cosmos 1656 4.0 04:55:58 10° NW 05:01:02 41° WSW 05:06:05 10° S
Cosmos 2173 Rocket 4.1 04:55:24 10° NNW 05:01:32 58° W 05:07:33 10° S
Cosmos 1674 3.8 04:58:36 10° SSE 05:02:13 45° E 05:05:54 10° NNE
Cosmos 2322 Rocket 4.3 04:58:28 10° N 05:03:33 32° ENE 05:08:37 10° ESE
EO 1 Del DPAF 3.5 05:01:09 10° SSE 05:04:59 72° ENE 05:08:50 10° N
Cosmos 972 Rocket 4.4 05:01:25 10° NNW 05:07:39 61° WSW 05:13:10 10° S
IRS-1C Rocket 4.1 05:02:22 10° NNE 05:07:41 89° ESE 05:12:57 10° SSW
CZ-3 R/B 4.1 04:53:04 10° SW 05:08:00 24° S 05:14:00 10° SE
Lacrosse 5 rocket 3.8 05:05:22 10° WNW 05:08:31 18° NNW 05:11:40 10° NNE
Cosmos 1833 Rocket 3.2 05:03:41 12° SW 05:08:38 45° WNW 05:14:02 10° NNE
Cosmos 1980 Rocket 2.2 05:06:30 10° NNW 05:12:14 83° WSW 05:17:53 10° SSE
Cosmos 2082 Rocket 2.9 05:09:07 11° SW 05:14:12 38° WNW 05:19:31 10° N
ADEOS II 2.1 05:09:36 10° N 05:14:50 70° WNW 05:20:03 10° SSW
ERS-2 4.4 05:15:55 10° NE 05:19:06 27° E 05:22:15 10° SSE
Cosmos 1864 Rocket 4.5 05:15:08 10° N 05:21:17 82° W 05:27:28 10° S
Cosmos 1340 Rocket 3.1 05:18:50 10° S 05:22:48 70° E 05:26:46 10° NNE
CZ-4B R/B 3.2 05:18:13 10° N 05:23:34 70° WNW 05:28:49 10° SSW
Cosmos 1331 Rocket 4.0 05:21:04 10° NNW 05:26:19 84° WSW 05:31:30 10° SSE
EXPRESS MD2 3.8 05:23:34 10° WNW 05:27:13 27° SW 05:29:33 10° S
GPS 2-05 Rocket1 4.0 05:25:49 10° WSW 05:28:57 30° S 05:32:02 10° ESE
Cosmos 2251 Rocket 3.6 05:25:21 10° SSW 05:30:38 90° WNW 05:36:01 10° NNE
